This is the latest recevied weather packets stored in our database for station/object JH5HTX-13. If no packets are shown the sender has not sent any weather packets the latest 10 day(s).
| Time | Temp. | Humidity | Pressure | Rain* | Wind** | Luminosity | Snow |
|---|---|---|---|---|---|---|---|
| 1777515253 | 12.78° C | 98% | 1017.2 hPa | 0 mm | - | - | - |
| 1777514352 | 12.78° C | 98% | 1017.4 hPa | 0 mm | - | - | - |
| 1777513452 | 12.22° C | 98% | 1017.6 hPa | 0 mm | - | - | - |
| 1777511652 | 12.22° C | 98% | 1018 hPa | 0 mm | - | - | - |
| 1777510752 | 12.22° C | 98% | 1018.1 hPa | 0 mm | - | - | - |
| 1777509852 | 12.22° C | 98% | 1018.3 hPa | 0 mm | - | - | - |
| 1777508952 | 12.22° C | 98% | 1018.5 hPa | 0 mm | - | - | - |
| 1777508052 | 12.22° C | 97% | 1018.5 hPa | 0 mm | - | - | - |
| 1777507152 | 11.67° C | 97% | 1018.7 hPa | 1.52 mm | - | - | - |
| 1777501751 | 11.67° C | 97% | 1018.3 hPa | 0 mm | - | - | - |
| 1777500851 | 11.67° C | 97% | 1018.3 hPa | 0 mm | - | - | - |
| 1777499951 | 11.67° C | 97% | 1018.3 hPa | 0 mm | - | - | - |
| 1777499051 | 11.67° C | 96% | 1018.2 hPa | 0 mm | - | - | - |
| 1777498151 | 11.67° C | 96% | 1018.1 hPa | 0 mm | - | - | - |
| 1777496350 | 11.67° C | 96% | 1018 hPa | 0 mm | - | - | - |
| 1777494550 | 11.67° C | 96% | 1018 hPa | 0 mm | - | - | - |
| 1777490950 | 12.22° C | 94% | 1018 hPa | 0 mm | - | - | - |
| 1777490050 | 12.78° C | 94% | 1018 hPa | 0 mm | - | - | - |
| 1777487349 | 13.33° C | 92% | 1018 hPa | 0 mm | - | - | - |
| 1777483749 | 13.33° C | 90% | 1018 hPa | 0 mm | - | - | - |
| 1777482849 | 13.89° C | 91% | 1018 hPa | 0 mm | - | - | - |
| 1777481949 | 13.89° C | 90% | 1018.1 hPa | 0 mm | - | - | - |
| 1777480148 | 13.89° C | 89% | 1017.9 hPa | 0 mm | - | - | - |
| 1777474748 | 15° C | 85% | 1018.1 hPa | 0 mm | - | - | - |
| 1777472948 | 15° C | 88% | 1017.8 hPa | 0 mm | - | - | - |
* Rain latest hour (hover to see other rain measurements)
** Current wind speed in m/s (hover to see current wind gust speed)